Dewpoint
19 19 19 21 21 21 21 21 18 15 16 17 16 18 20 21 23 23 22 23 25 26 27 27 28 28 28 28 31 31 31 33 33 35 34 34 35 36
19 18 18 20 20 21 21 21 21 19 16 17 17 19 20 22 22 23 23 25 24 26 27 27 27 27 27 27 27 29 31 31 32 34 34 34 34 35
18 18 19 20 20 20 20 20 19 19 17 18 19 21 22 22 22 23 23 23 24 26 27 26 26 26 26 27 27 28 29 31 32 32 32 34 33 34
17 18 19 20 19 20 20 19 19 19 19 18 20 22 22 23 23 23 24 25 25 27 25 25 25 25 26 27 28 28 27 28 29 29 28 29 31 33
20 20 20 20 20 20 20 19 19 20 21 21 21 22 23 24 25 24 24 25 25 24 22 22 23 26 27 27 27 27 27 28 28 28 28 29 30 31
20 20 20 20 19 18 19 19 20 21 21 22 22 22 24 24 23 22 21 20 20 21 21 23 25 26 25 25 26 26 26 26 27 27 28 29 31 31
20 20 20 22 24 22 21 22 22 22 22 22 23 23 24 22 21 21 20 21 21 22 22 23 24 23 23 24 24 24 25 26 26 27 27 29 30 31
19 19 19 20 21 23 23 22 22 23 23 23 25 24 23 22 21 21 21 21 20 23 23 22 22 22 22 22 23 24 25 25 26 28 28 30 30 31
18 19 19 20 23 22 23 24 23 24 24 24 23 23 23 22 22 22 23 24 23 23 22 20 20 20 21 21 22 23 25 26 26 26 27 28 30 30
20 20 21 22 23 23 23 23 24 24 24 24 24 24 23 24 27 27 23 22 22 21 20 18 19 19 20 20 21 23 24 25 25 25 25 26 27 28
20 21 23 23 23 23 24 24 24 23 23 22 22 24 25 23 21 21 21 20 18 18 19 19 19 19 19 20 21 23 22 22 22 24 25 26 27 28
21 22 23 22 23 24 23 22 21 19 19 21 19 17 17 18 20 21 20 20 19 18 18 19 20 21 17 19 19 20 20 21 22 23 24 25 27 27
22 21 21 24 24 23 21 19 18 20 20 16 16 17 18 19 20 21 22 22 20 18 19 22 21 20 20 18 19 20 20 20 20 21 23 25 26 28
22 22 22 24 22 20 19 19 20 20 16 16 18 18 19 20 20 21 22 22 23 22 22 22 19 19 18 17 17 18 19 21 22 23 24 25 27 28
23 24 23 21 17 17 18 19 19 16 17 18 19 19 19 20 21 21 21 22 21 21 22 22 22 21 20 18 17 18 20 20 22 23 24 25 26 27
24 19 17 15 16 17 17 16 17 17 18 19 19 19 20 19 19 19 19 19 19 18 19 20 21 21 19 19 20 19 20 20 22 23 24 24 26 28
18 14 13 14 15 15 16 16 16 17 18 19 18 18 18 18 18 18 19 19 18 17 17 18 19 21 21 20 19 20 21 21 22 23 24 25 26 26
15 13 14 15 15 16 16 16 17 17 18 18 18 18 17 17 18 19 20 19 17 17 17 18 18 19 18 20 22 21 22 22 23 24 25 25 25 26
14 15 15 16 16 16 17 17 17 17 18 18 17 17 18 19 18 17 18 18 18 17 18 18 19 20 17 15 17 20 23 25 25 25 24 24 25 26
16 16 16 16 17 17 17 17 17 17 17 17 18 19 18 17 17 17 18 18 18 19 21 21 20 20 18 18 20 23 25 25 25 24 24 25 26 27
16 16 17 17 17 17 17 17 17 16 18 18 16 17 18 18 17 18 19 20 21 21 19 20 21 24 25 25 22 21 22 24 26 27 27 26 25 25
16 17 17 17 18 17 17 17 16 16 16 17 17 18 19 19 19 19 20 20 21 22 22 23 24 25 25 24 22 22 23 24 26 28 29 30 27 24
16 17 17 18 18 18 17 17 17 17 17 17 18 19 19 20 21 21 21 21 24 25 25 23 24 24 24 24 24 24 25 26 26 27 27 28 29 30
Wind_Speed
6 7 5 4 4 4 4 4 4 5 5 3 4 3 12 12 13 17 15 21 26 27 26 28 28 27 27 28 27 28 29 31 32 30 33 33 34 33
4 5 4 3 3 3 3 4 6 8 9 4 7 10 14 15 16 18 18 24 24 26 27 26 27 27 27 29 30 30 30 31 32 31 33 33 33 34
3 2 3 4 3 3 3 4 7 7 15 9 9 13 15 19 17 16 17 18 18 26 27 28 27 28 29 30 30 30 29 30 31 32 32 32 33 33
3 4 4 3 4 5 6 8 9 11 11 19 12 12 13 16 16 18 18 17 19 23 27 28 30 30 29 28 28 28 30 31 30 32 33 33 32 32
1 3 4 3 6 6 8 10 11 12 13 15 18 11 11 12 16 15 16 16 17 22 26 27 29 27 27 28 30 31 31 30 31 31 32 31 30 31
3 3 4 4 6 7 9 12 12 12 14 16 16 15 11 13 15 18 20 17 20 17 22 25 26 25 28 31 31 31 30 29 29 30 31 30 32 32
3 4 5 6 9 11 10 10 11 14 16 17 15 12 15 18 20 18 20 21 20 20 19 14 11 18 21 25 26 29 29 29 30 31 32 32 31 31
5 7 8 9 9 11 14 17 17 16 14 11 14 17 19 18 19 19 21 22 20 14 9 22 19 21 20 18 25 30 32 32 31 31 31 31 30 29
6 7 7 7 11 12 14 16 17 19 20 20 19 18 20 20 21 22 20 16 21 23 20 23 21 24 19 20 28 31 32 31 29 27 27 27 27 28
5 6 8 12 13 14 14 15 15 14 15 14 17 19 19 19 18 17 20 18 18 19 18 22 20 25 21 18 29 32 29 26 25 26 29 30 28 28
6 8 10 12 14 18 17 15 13 13 13 21 22 23 24 27 26 18 17 18 22 20 20 19 13 21 22 24 22 25 22 24 29 30 29 28 29 29
7 8 11 15 17 19 18 15 13 15 18 14 12 17 18 18 21 15 15 18 19 17 5 7 17 13 12 8 12 13 19 24 27 28 30 29 28 20
10 11 10 18 19 21 21 13 16 19 11 14 15 15 16 15 13 12 13 16 19 21 22 18 14 18 15 17 13 18 19 23 19 21 26 28 27 22
11 12 14 17 21 20 17 19 20 17 13 13 14 17 16 17 17 16 18 19 19 25 26 20 15 19 23 25 26 19 21 21 19 21 18 22 24 25
11 13 17 17 17 15 16 17 16 12 12 14 16 18 16 16 20 19 18 19 19 23 22 20 20 22 21 24 25 28 27 21 23 22 18 15 18 18
11 7 13 15 13 13 13 12 10 11 13 14 17 18 17 18 20 18 19 19 20 21 21 18 18 19 23 23 23 28 25 21 22 24 22 20 20 19
12 10 11 11 13 13 12 12 13 13 14 14 15 18 19 18 20 18 18 20 19 22 24 22 16 18 21 25 26 27 26 27 24 24 23 24 22 22
8 10 12 11 12 14 15 16 14 16 14 16 17 17 19 19 21 20 17 18 21 22 22 22 21 21 19 19 28 28 26 24 24 22 21 24 25 21
8 11 11 11 13 13 13 15 18 17 16 16 17 18 19 18 22 21 20 19 21 21 22 22 20 18 23 26 19 21 23 26 25 26 22 22 25 26
8 10 12 12 13 13 14 15 17 17 17 17 17 18 19 18 20 21 20 21 21 22 22 20 18 19 20 26 30 31 21 20 20 24 26 23 24 31
12 12 11 12 13 14 15 15 16 17 19 19 19 18 19 18 20 20 21 26 26 21 23 23 23 28 23 21 19 26 22 19 23 24 23 23 26 26
11 12 13 13 14 15 16 16 17 17 18 17 18 18 19 18 20 21 21 22 23 22 23 23 23 21 20 20 25 27 24 23 23 24 26 28 22 13
13 13 14 14 14 14 15 16 17 18 18 18 18 19 19 20 20 20 22 21 21 21 21 23 23 20 21 20 23 22 26 26 23 25 23 21 22 25
Wind_Direction
148 128 136 128 145 163 166 174 201 283 289 289 278 280 323 312 301 310 304 304 307 306 303 302 300 301 299 294 297 293 294 291 286 290 286 283 282 280
144 143 129 147 177 187 200 209 213 241 267 247 279 299 306 302 300 310 302 306 303 302 302 300 300 297 297 299 295 293 292 289 290 288 286 285 284 282
142 192 200 179 216 232 220 235 256 243 266 282 269 288 293 291 292 292 295 293 293 298 301 303 300 300 300 297 297 293 290 291 287 287 286 286 284 285
184 227 244 226 239 251 260 261 260 259 258 281 286 282 271 278 279 281 284 285 288 292 299 300 300 300 299 297 294 295 293 291 291 291 289 287 285 284
98 273 287 277 275 275 271 268 264 263 269 279 289 281 282 289 290 279 284 286 282 287 295 295 295 297 293 296 298 295 293 291 290 288 284 283 281 279
16 316 322 287 270 279 276 273 275 279 281 282 284 285 281 285 291 299 302 298 296 293 289 286 288 289 293 296 294 294 292 289 287 283 280 280 279 278
343 340 338 315 300 293 291 290 288 287 284 284 284 283 292 302 305 304 296 299 297 292 282 281 287 286 286 287 287 288 290 286 285 284 283 282 279 279
346 351 346 334 333 321 311 304 299 295 292 284 291 293 295 297 299 295 295 298 302 297 316 303 296 289 285 281 283 288 291 292 289 285 283 281 280 275
4 356 348 329 321 315 307 299 299 296 294 302 296 288 292 292 291 289 283 280 292 295 299 294 293 288 285 283 287 289 292 292 290 287 285 281 282 284
348 334 320 315 318 308 296 289 288 289 288 285 279 283 275 280 278 289 299 294 289 287 288 288 291 286 288 282 284 288 286 288 289 290 292 288 284 281
328 321 319 312 311 314 312 307 298 288 283 294 297 300 301 300 300 303 293 297 294 293 292 289 281 292 293 282 273 274 278 286 292 291 290 285 283 281
324 315 318 323 319 315 323 319 314 305 294 296 302 298 293 286 295 292 284 284 290 302 275 283 298 303 305 246 267 275 283 279 285 286 287 286 283 280
328 324 315 321 318 326 321 326 306 306 330 321 308 301 299 297 293 288 276 272 284 274 279 293 290 288 275 289 285 289 285 285 282 282 283 282 282 276
320 310 300 312 328 324 323 313 314 325 323 312 307 303 302 301 301 297 290 280 269 269 281 278 274 277 281 286 290 293 288 286 282 278 277 277 279 278
311 311 330 326 325 321 314 320 324 316 307 305 301 298 297 296 295 293 287 284 276 274 276 273 265 274 272 277 282 285 291 293 286 277 272 266 271 273
314 345 336 333 327 321 319 314 310 305 303 300 297 297 300 302 298 296 296 299 293 291 286 277 267 265 271 270 273 279 281 279 286 284 280 278 274 264
348 348 335 333 329 326 323 318 314 311 308 305 302 304 303 301 298 300 295 294 289 297 299 298 283 263 259 265 275 274 276 278 276 276 276 275 273 269
351 335 327 322 317 317 318 316 313 311 305 305 304 299 299 300 300 300 298 295 293 294 294 293 296 297 288 268 244 266 274 271 278 278 273 276 278 274
341 323 313 311 310 310 309 308 308 307 303 301 298 297 297 297 305 301 299 295 294 292 288 288 287 285 296 295 288 264 269 281 286 286 279 269 271 276
317 309 308 308 307 306 305 303 304 304 304 300 299 300 298 295 301 300 299 297 295 294 296 296 290 283 279 286 295 297 283 273 275 278 280 279 270 271
316 312 307 304 302 300 298 299 296 297 303 306 300 297 298 298 297 297 297 301 304 301 300 301 299 298 292 288 287 292 299 285 270 270 278 280 284 288
313 310 307 303 298 296 297 298 298 301 302 300 296 297 297 296 295 298 300 301 301 300 297 296 301 304 299 295 294 297 299 304 297 287 276 270 271 272
313 309 308 303 299 297 298 298 300 299 298 297 297 300 302 302 299 297 297 293 299 306 311 309 308 307 303 302 299 300 301 305 309 313 309 293 281 280